EN

Hourly Weather La Fleche

Today, 30 July, Friday

Time Temperature Precipitation Wind Pressure Humidity
00:00 +13°C° 0 mm 3 mps 752 mmHg 89%
01:00 +13°C° 0 mm 3 mps 752 mmHg 91%
02:00 +13°C° 0 mm 3 mps 751 mmHg 94%
03:00 +13°C° 0 mm 3 mps 751 mmHg 96%
04:00 +14°C° 0 mm 4 mps 751 mmHg 92%
05:00 +15°C° 0 mm 4 mps 751 mmHg 89%
06:00 +15°C° 0 mm 5 mps 751 mmHg 86%
07:00 +16°C° 0 mm 5 mps 751 mmHg 76%
08:00 +17°C° 0 mm 6 mps 751 mmHg 67%
09:00 +19°C° 0 mm 6 mps 751 mmHg 57%
10:00 +21°C° 0 mm 6 mps 751 mmHg 51%
11:00 +22°C° 0 mm 7 mps 751 mmHg 45%
12:00 +24°C° 0 mm 7 mps 751 mmHg 38%
13:00 +24°C° 0 mm 7 mps 751 mmHg 38%
14:00 +26°C° 0 mm 7 mps 751 mmHg 37%
15:00 +26°C° 0 mm 8 mps 751 mmHg 37%
16:00 +24°C° 0 mm 7 mps 752 mmHg 40%
17:00 +23°C° 0 mm 6 mps 752 mmHg 44%
18:00 +22°C° 0 mm 6 mps 752 mmHg 48%
19:00 +21°C° 0 mm 5 mps 752 mmHg 54%
20:00 +19°C° 0 mm 5 mps 753 mmHg 60%
21:00 +17°C° 0 mm 5 mps 753 mmHg 65%
22:00 +17°C° 0 mm 4 mps 753 mmHg 75%
23:00 +14°C° 0 mm 4 mps 753 mmHg 84%

Tomorrow, 31 July, Saturday

Time Temperature Precipitation Wind Pressure Humidity
00:00 +13°C° 0 mm 3 mps 753 mmHg 93%
01:00 +13°C° 0 mm 3 mps 753 mmHg 94%
02:00 +13°C° 0 mm 2 mps 753 mmHg 95%
03:00 +13°C° 0 mm 2 mps 753 mmHg 96%
04:00 +13°C° 0 mm 2 mps 753 mmHg 94%
05:00 +14°C° 0 mm 2 mps 753 mmHg 92%
06:00 +14°C° 0 mm 2 mps 753 mmHg 90%
07:00 +16°C° 0 mm 3 mps 753 mmHg 81%
08:00 +17°C° 0 mm 3 mps 753 mmHg 72%
09:00 +19°C° 0 mm 3 mps 753 mmHg 63%
10:00 +21°C° 0 mm 3 mps 753 mmHg 56%
11:00 +22°C° 0 mm 4 mps 752 mmHg 49%
12:00 +25°C° 0 mm 4 mps 752 mmHg 41%
13:00 +23°C° 0 mm 4 mps 752 mmHg 42%
14:00 +23°C° 0 mm 4 mps 752 mmHg 43%
15:00 +23°C° 0 mm 4 mps 752 mmHg 44%
16:00 +22°C° 0 mm 4 mps 752 mmHg 47%
17:00 +22°C° 0 mm 4 mps 752 mmHg 50%
18:00 +21°C° 0 mm 4 mps 752 mmHg 53%
19:00 +19°C° 0 mm 3 mps 752 mmHg 62%
20:00 +18°C° 0 mm 3 mps 752 mmHg 70%
21:00 +16°C° 0 mm 3 mps 752 mmHg 79%
22:00 +15°C° 0 mm 2 mps 752 mmHg 84%
23:00 +14°C° 0 mm 2 mps 753 mmHg 88%

Day after tomorrow, 1 August, Sunday

Time Temperature Precipitation Wind Pressure Humidity
00:00 +13°C° 0 mm 2 mps 753 mmHg 93%
01:00 +13°C° 0 mm 2 mps 753 mmHg 93%
02:00 +13°C° 0 mm 2 mps 752 mmHg 93%
03:00 +12°C° 0 mm 1 mps 752 mmHg 93%
04:00 +13°C° 0 mm 1 mps 752 mmHg 91%
05:00 +14°C° 0 mm 1 mps 753 mmHg 88%
06:00 +14°C° 0 mm 1 mps 753 mmHg 86%
07:00 +16°C° 0 mm 2 mps 753 mmHg 79%
08:00 +18°C° 0 mm 3 mps 753 mmHg 71%
09:00 +19°C° 0 mm 3 mps 753 mmHg 64%
10:00 +21°C° 0.1 mm 3 mps 753 mmHg 56%
11:00 +22°C° 0.1 mm 3 mps 753 mmHg 48%
12:00 +25°C° 0.1 mm 3 mps 752 mmHg 40%
13:00 +25°C° 0 mm 4 mps 752 mmHg 41%
14:00 +25°C° 0 mm 5 mps 752 mmHg 43%
15:00 +25°C° 0 mm 5 mps 752 mmHg 44%
16:00 +23°C° 0.1 mm 5 mps 752 mmHg 51%
17:00 +22°C° 0.1 mm 4 mps 752 mmHg 57%
18:00 +21°C° 0.1 mm 4 mps 752 mmHg 64%
19:00 +19°C° 0.4 mm 4 mps 753 mmHg 74%
20:00 +17°C° 0.4 mm 3 mps 753 mmHg 83%
21:00 +14°C° 0.4 mm 3 mps 754 mmHg 93%
22:00 +14°C° 0 mm 3 mps 754 mmHg 94%
23:00 +14°C° 0 mm 2 mps 754 mmHg 94%

2 August, Monday

Time Temperature Precipitation Wind Pressure Humidity
00:00 +14°C° 0 mm 2 mps 754 mmHg 95%
01:00 +14°C° 0 mm 2 mps 754 mmHg 96%
02:00 +13°C° 0 mm 2 mps 754 mmHg 96%
03:00 +13°C° 0 mm 2 mps 754 mmHg 96%
04:00 +14°C° 0 mm 2 mps 755 mmHg 96%
05:00 +14°C° 0 mm 2 mps 755 mmHg 95%
06:00 +14°C° 0 mm 2 mps 755 mmHg 95%
07:00 +16°C° 0 mm 2 mps 755 mmHg 87%
08:00 +18°C° 0 mm 2 mps 755 mmHg 80%
09:00 +20°C° 0 mm 3 mps 755 mmHg 73%
10:00 +21°C° 0.2 mm 3 mps 755 mmHg 64%
11:00 +24°C° 0.2 mm 3 mps 755 mmHg 55%
12:00 +25°C° 0.2 mm 4 mps 755 mmHg 46%
13:00 +25°C° 0 mm 4 mps 755 mmHg 47%
14:00 +25°C° 0 mm 5 mps 754 mmHg 47%
15:00 +23°C° 0 mm 5 mps 754 mmHg 48%
16:00 +22°C° 0.1 mm 4 mps 754 mmHg 54%
17:00 +22°C° 0.1 mm 4 mps 754 mmHg 59%
18:00 +21°C° 0.1 mm 3 mps 754 mmHg 64%
19:00 +19°C° 0.1 mm 3 mps 754 mmHg 70%
20:00 +18°C° 0.1 mm 3 mps 754 mmHg 76%
21:00 +17°C° 0.1 mm 2 mps 755 mmHg 82%
22:00 +16°C° 0 mm 2 mps 755 mmHg 84%
23:00 +15°C° 0 mm 2 mps 755 mmHg 87%

3 August, Tuesday

Time Temperature Precipitation Wind Pressure Humidity
00:00 +14°C° 0 mm 2 mps 755 mmHg 89%
01:00 +14°C° 0 mm 2 mps 754 mmHg 88%
02:00 +14°C° 0 mm 1 mps 754 mmHg 87%
03:00 +13°C° 0 mm 1 mps 754 mmHg 86%
04:00 +14°C° 0 mm 1 mps 754 mmHg 84%
05:00 +14°C° 0 mm 1 mps 754 mmHg 82%
06:00 +14°C° 0 mm 1 mps 755 mmHg 80%
07:00 +16°C° 0 mm 1 mps 755 mmHg 74%
08:00 +18°C° 0 mm 1 mps 755 mmHg 68%
09:00 +20°C° 0 mm 1 mps 755 mmHg 61%
10:00 +20°C° 0 mm 2 mps 754 mmHg 54%
11:00 +23°C° 0 mm 2 mps 754 mmHg 47%
12:00 +24°C° 0 mm 2 mps 753 mmHg 40%
13:00 +25°C° 0 mm 3 mps 753 mmHg 39%
14:00 +25°C° 0 mm 3 mps 753 mmHg 37%
15:00 +25°C° 0 mm 4 mps 752 mmHg 35%
16:00 +22°C° 0.1 mm 4 mps 752 mmHg 48%
17:00 +19°C° 0.1 mm 4 mps 752 mmHg 61%
18:00 +17°C° 0.1 mm 4 mps 753 mmHg 73%
19:00 +16°C° 0.8 mm 3 mps 752 mmHg 81%
20:00 +15°C° 0.8 mm 2 mps 752 mmHg 89%
21:00 +14°C° 0.8 mm 1 mps 752 mmHg 97%
22:00 +14°C° 0.7 mm 1 mps 752 mmHg 97%
23:00 +14°C° 0.7 mm 2 mps 751 mmHg 97%

4 August, Wednesday

Time Temperature Precipitation Wind Pressure Humidity
00:00 +13°C° 0.7 mm 3 mps 751 mmHg 97%
01:00 +13°C° 0.8 mm 4 mps 750 mmHg 97%
02:00 +14°C° 0.8 mm 4 mps 749 mmHg 96%
03:00 +15°C° 0.8 mm 5 mps 748 mmHg 96%
04:00 +15°C° 0.2 mm 5 mps 748 mmHg 95%
05:00 +15°C° 0.2 mm 5 mps 747 mmHg 94%
06:00 +17°C° 0.2 mm 4 mps 747 mmHg 93%
07:00 +15°C° 0.3 mm 6 mps 748 mmHg 92%
08:00 +15°C° 0.3 mm 7 mps 748 mmHg 90%
09:00 +15°C° 0.3 mm 8 mps 749 mmHg 89%
10:00 +15°C° 0.3 mm 8 mps 750 mmHg 84%
11:00 +16°C° 0.3 mm 8 mps 750 mmHg 80%
12:00 +17°C° 0.3 mm 7 mps 751 mmHg 75%
13:00 +18°C° 0.2 mm 7 mps 751 mmHg 70%
14:00 +18°C° 0.2 mm 7 mps 752 mmHg 65%
15:00 +20°C° 0.2 mm 7 mps 752 mmHg 61%
16:00 +20°C° 0.1 mm 6 mps 752 mmHg 62%
17:00 +19°C° 0.1 mm 5 mps 753 mmHg 64%
18:00 +19°C° 0.1 mm 4 mps 753 mmHg 66%
19:00 +18°C° 0 mm 3 mps 753 mmHg 71%
20:00 +16°C° 0 mm 3 mps 753 mmHg 76%
21:00 +15°C° 0 mm 2 mps 754 mmHg 82%
22:00 +14°C° 0 mm 2 mps 753 mmHg 84%
23:00 +13°C° 0 mm 1 mps 753 mmHg 87%
Show more